This is the latest recevied weather packets stored in our database for station/object WK1F-2. If no packets are shown the sender has not sent any weather packets the latest 1 day(s).
| Time | Temp. | Humidity | Pressure | Rain* | Wind** | Luminosity | Snow |
|---|---|---|---|---|---|---|---|
| 1778031146 | 21.11° C | 67% | 1015.6 hPa | 0 mm | 1.79 m/s, 117° | - | - |
| 1778030846 | 21.11° C | 66% | 1015.5 hPa | 0 mm | 1.79 m/s, 100° | - | - |
| 1778030546 | 21.11° C | 67% | 1015.5 hPa | 0 mm | 1.79 m/s, 117° | - | - |
| 1778030246 | 21.11° C | 66% | 1015.5 hPa | 0 mm | 1.79 m/s, 120° | - | - |
| 1778029946 | 21.11° C | 66% | 1015.5 hPa | 0 mm | 1.79 m/s, 115° | - | - |
| 1778029646 | 21.11° C | 66% | 1015.4 hPa | 0 mm | 1.79 m/s, 108° | - | - |
| 1778029346 | 21.11° C | 66% | 1015.5 hPa | 0 mm | 1.34 m/s, 113° | - | - |
| 1778029046 | 21.11° C | 66% | 1015.4 hPa | 0 mm | 2.68 m/s, 90° | - | - |
| 1778028746 | 21.11° C | 66% | 1015.3 hPa | 0 mm | 1.79 m/s, 178° | - | - |
| 1778028446 | 21.11° C | 66% | 1015.4 hPa | 0 mm | 3.13 m/s, 128° | - | - |
| 1778028146 | 21.67° C | 66% | 1015.4 hPa | 0 mm | 1.79 m/s, 94° | - | - |
| 1778027846 | 21.67° C | 66% | 1015.4 hPa | 0 mm | 2.68 m/s, 155° | - | - |
| 1778027546 | 21.67° C | 65% | 1015.3 hPa | 0 mm | 1.79 m/s, 147° | - | - |
| 1778027246 | 21.67° C | 65% | 1015.3 hPa | 0 mm | 0.89 m/s, 138° | - | - |
| 1778026946 | 21.67° C | 65% | 1015.3 hPa | 0 mm | 1.79 m/s, 126° | - | - |
| 1778026646 | 21.67° C | 65% | 1015.3 hPa | 0 mm | 1.34 m/s, 132° | - | - |
| 1778026346 | 21.67° C | 65% | 1015.2 hPa | 0 mm | 1.34 m/s, 102° | - | - |
| 1778026046 | 21.67° C | 65% | 1015.2 hPa | 0 mm | 2.68 m/s, 128° | - | - |
| 1778025746 | 21.67° C | 65% | 1015.2 hPa | 0 mm | 0.89 m/s, 177° | - | - |
| 1778025446 | 22.22° C | 65% | 1015.2 hPa | 0 mm | 4.02 m/s, 93° | - | - |
| 1778025146 | 22.22° C | 65% | 1015.2 hPa | 0 mm | 1.79 m/s, 88° | - | - |
| 1778024846 | 22.22° C | 65% | 1015.3 hPa | 0 mm | 2.24 m/s, 107° | - | - |
| 1778024546 | 22.22° C | 65% | 1015.2 hPa | 0 mm | 1.34 m/s, 66° | - | - |
| 1778024246 | 22.22° C | 64% | 1015.3 hPa | 0 mm | 3.13 m/s, 105° | - | - |
| 1778023946 | 22.22° C | 64% | 1015.3 hPa | 0 mm | 4.47 m/s, 99° | - | - |
* Rain latest hour (hover to see other rain measurements)
** Current wind speed in m/s (hover to see current wind gust speed)